{"data":{"norad_id":60081,"epoch":"2026-09-23T00:06:49.298400Z","epoch_age_seconds":62165,"freshness":"FRESH","line1":"1 60081U 24114C   26266.00473725  .00000368  00000+0  54658-4 0  9995","line2":"2 60081  97.9821 289.5891 0000997 136.4720 223.6571 14.80750782121858","mean_motion":14.80750782,"eccentricity":9.97e-5,"inclination_deg":97.9821,"raan_deg":289.5891,"arg_perigee_deg":136.472,"mean_anomaly_deg":223.6571,"bstar":5.4658e-5,"rev_number":12185,"period_min":97.247964850307,"perigee_km":626.2568745185,"apogee_km":627.65368991957,"semimajor_km":7005.092282219,"source":"CELESTRAK","updated_at":"2026-09-23T09:00:20.406684Z"}}